User: anonymous
Location: Raleigh
(35.7720°N, 78.6390°W)
Time: 17:24:11
(UTC-04:00)
Language:

JAS-2 - Orbit

View from above orbital plane
View from above orbital plane
View from above satellite
View from above satellite

Ground track
Ground track

The orbit data is extracted from the following two-line orbital elements,

1 24278U 96046B   14106.40077675  .00000011  00000-0  43397-4 0  3510
2 24278 098.5159 128.7786 0351599 097.9871 316.8399 13.53020659872318
Epoch (UTC): 16 April 2014 09:37:07
Eccentricity: 0.0351599
inclination: 98.5159°
perigee height: 799 km
apogee height: 1323 km
right ascension of ascending node: 128.7786°
argument of perigee: 97.9871°
revolutions per day: 13.53020659
mean anomaly at epoch: 316.8399°
orbit number at epoch: 87231

The dashed part of the orbit path shows where the satellite is in the earth's shadow,  

DLR